Regional Weather Roundup
Issued by NWS

Home | Current Version | Previous Version | Text Only | Print | Product List | Glossary Off
Versions: 1 2 3 4 5 6 7 8 9 10 11 12 13 14 15 16 17 18 19 20 21 22 23 24 25 26 27 28 29 30 31 32 33 34 35 36 37 38 39 40 41 42 43 44 45 46 47 48 49 50

000
ASUS43 KLOT 011710
RWRIL

ILLINOIS REGIONAL WEATHER ROUNDUP
NATIONAL WEATHER SERVICE CHICAGO/ROMEOVILLE IL
1200 PM CDT WED OCT 01 2014

NOTE: "FAIR" INDICATES FEW OR NO CLOUDS BELOW 12,000 FEET WITH NO
SIGNIFICANT WEATHER AND/OR OBSTRUCTIONS TO VISIBILITY.

* THESE STATIONS ARE NOT UNDER NWS QUALITY CONTROL. THEY ALSO MAY NOT
  REPORT WEATHER SUCH AS PRECIPITATION OR FOG.

ILZ001-002-007-009-015-016-024-011800-
NORTHWEST ILLINOIS

CITY           SKY/WX    TMP DP  RH WIND       PRES   REMARKS
MOLINE         NOT AVBL
SAVANNA*       CLOUDY    67  52  59 SE12      29.91F
$$

ILZ003-004-008-010-011-017-018-011800-
NORTH CENTRAL ILLINOIS

CITY           SKY/WX    TMP DP  RH WIND       PRES   REMARKS
ROCKFORD       CLOUDY    66  50  56 SE13      29.97F
FREEPORT*      PTSUNNY   64  51  62 SE12      29.96F
ROCHELLE*      MOSUNNY   66  50  56 SE8       29.96F
DE KALB*       SUNNY     63  50  62 SE10G16   29.98F
PERU*          MOSUNNY   68  53  58 SE8       29.96F
$$

ILZ005-006-012>014-019>023-011800-
NORTHEAST ILLINOIS

CITY           SKY/WX    TMP DP  RH WIND       PRES   REMARKS
CHICAGO-OHARE  MOSUNNY   63  48  58 SE8       29.99F
CHICAGO-MIDWAY MOSUNNY   65  51  60 SE9       30.00F
AURORA         SUNNY     66  50  56 SE13G20   29.98F
LANSING*       SUNNY     64  52  65 SE6       30.01F
JOLIET*        SUNNY     66  51  59 SE9       29.99F
WAUKEGAN       MOSUNNY   59  50  72 SE13      29.99F
DUPAGE AIRPORT SUNNY     65  49  56 VRB3      29.98F
KANKAKEE*      SUNNY     67  53  60 E8        30.00F
WHEELING       SUNNY     65  48  54 S10       30.01F
MORRIS*        SUNNY     67  53  61 E7        29.97F
ROMEOVILLE*    SUNNY     65  49  56 SE10      29.99F
NORTHERLY ISL    N/A     62  51  67 E9          N/A
$$

LMZ740>746-011800-
SOUTHERN LAKE MICHIGAN

STATION/POSITION SKY/WX   TEMP    WIND        PRES    VSBY  WAVE
                          AIR SEA DIR/SP/G                  HT/PER
                          (F)     (DEG/KT/KT) (MB)    (MI)  (FT/S)
SOUTHERN BUOY              57 61  130/ 10/ 12 1017.1F         1/ 3
WAUKEGAN HARBOR            58     150/ 15/ 17   N/A
HARRISON CRIB              58     140/ 13/ 15   N/A
BURNHAM HARBOR             61     110/ 10/ 11   N/A
CALUMET HARBOR             62     140/  7/  9 1015.0F
MICHIGAN CITY              61     120/  7/  9   N/A
MICHIGAN CITY 6N           61 64  160/  6/ 12   N/A           1/ 2
ST. JOSEPH                 59 62  120/  8/ 12   N/A           1/ 2
$$

ILZ025>027-034>036-040-047-049-050-058-095>099-011800-
WEST-CENTRAL ILLINOIS

CITY           SKY/WX    TMP DP  RH WIND       PRES   REMARKS
QUINCY         LGT RAIN  65  59  81 E5        29.91F
GALESBURG*     CLOUDY    69  57  65 SE6       29.91F
MACOMB*        CLOUDY    71  56  59 SW7       29.95R
JACKSONVILLE*  PTSUNNY   80  61  53 S7        29.92F HX  81
PITTSFIELD*    CLOUDY    76  60  58 S5        29.92R
$$

ILZ028>032-037-038-041>044-048-051>054-059>061-011800-
CENTRAL ILLINOIS

CITY           SKY/WX    TMP DP  RH WIND       PRES   REMARKS
PONTIAC        SUNNY     73  55  53 SE9       29.96F
DECATUR        SUNNY     77  61  57 S9        29.95F
PEORIA         PTSUNNY   74  58  57 SE7       29.93F
LACON*         PTSUNNY   71  56  59 SE7       29.93F
LINCOLN*       MOSUNNY   78  58  51 S9        29.91F
SPRINGFIELD    MOSUNNY   77  61  57 VRB7      29.93F
TAYLORVILLE    SUNNY     79  59  50 S8        29.93F HX  80
$$

ILZ033-039-045-046-055>057-062-063-011800-
EAST-CENTRAL ILLINOIS

CITY           SKY/WX    TMP DP  RH WIND       PRES   REMARKS
CHAMPAIGN      SUNNY     75  57  53 SE7       29.97F
DANVILLE*      SUNNY     71  56  59 E6        29.96F
RANTOUL*       SUNNY     75  54  48 SE7       29.98S
MATTOON        SUNNY     75  60  59 S10       29.96S
PARIS*         SUNNY     76  59  55 E3        29.98F
$$

ILZ079-100>102-011800-
SOUTHWEST ILLINOIS

CITY           SKY/WX    TMP DP  RH WIND       PRES   REMARKS
ALTON          PTSUNNY   79  57  47 S14       29.91F HX  80
BELLEVILLE     MOSUNNY   83  63  50 E6        29.90F HX  83
CAHOKIA*       PTSUNNY   82  61  48 S12       29.89F HX  83
SPARTA*        SUNNY     83  61  48 S9        29.93F HX  83
$$

ILZ064>066-069>071-074>076-080>082-084>086-088>090-092>094-011800-
SOUTH-CENTRAL ILLINOIS

CITY           SKY/WX    TMP DP  RH WIND       PRES   REMARKS
CARBONDALE     SUNNY     82  61  48 S10       29.93F HX  83
CAIRO*         MOSUNNY   85  62  44 S7        29.94S HX  86
EFFINGHAM*     MOSUNNY   76  57  52 SE6       29.96S
MARION         MOSUNNY   79  61  53 SW9       29.96S HX  80
CENTRALIA*     SUNNY     81  59  47 S8        29.94S HX  81
SALEM*         SUNNY     80  65  58 SE6       29.95S HX  82
METROPOLIS*    SUNNY     84  61  44 S6        29.94F HX  84
$$

ILZ067-068-072-073-078-083-087-091-011800-
SOUTHEAST ILLINOIS

CITY           SKY/WX    TMP DP  RH WIND       PRES   REMARKS
LAWRENCEVILLE  MOSUNNY   78  61  55 SE8       29.97F HX  80
FLORA*         SUNNY     78  60  53 S6        29.95F
FAIRFIELD*     SUNNY     81  63  54 SE5       29.94F HX  82
HARRISBURG*    SUNNY     83  56  40 SW6       29.95F HX  82
ROBINSON*      SUNNY     77  63  61 SE3       29.98F
CARMI*         SUNNY     83  61  46 S7        29.95F HX  84
$$

ABBREVIATIONS USED IN REMARKS
   TC - TEMPERATURE IN CELSIUS
  WCI - WIND CHILL INDEX
   HX - HEAT INDEX
  VSB - VISIBILITY
$$




USA.gov is the U.S. government's official web portal to all federal, state and local government web resources and services.